Location: Newark
(53.7833°N, 20.5000°E)
Time: 15:56:17
(UTC+00:00)

Envisat - Visible Passes

Search period start: 22 October 2019 00:00
Search period end: 01 November 2019 00:00
Orbit: 764 x 766 km, 98.1° (Epoch: 22 October)

Date Brightness Start Highest point End Pass type
(mag) Time Alt. Az. Time Alt. Az. Time Alt. Az.
22 Oct 3.0 16:19:17 10° SSE 16:24:21 81° ENE 16:29:29 10° NNW visible
22 Oct 5.7 18:00:31 10° SW 18:04:01 19° W 18:07:34 10° NW visible
23 Oct 6.0 04:22:25 10° NE 04:25:53 18° E 04:29:21 10° SE visible
23 Oct 4.7 17:22:15 10° SSW 17:26:52 34° W 17:31:31 10° NNW visible
24 Oct 3.5 16:44:50 10° S 16:49:53 65° WSW 16:54:59 10° NNW visible
24 Oct 6.2 18:28:13 10° WSW 18:29:57 12° W 18:31:40 10° WNW visible
25 Oct 5.5 04:47:19 10° NNE 04:51:42 28° E 04:56:03 10° SSE visible
25 Oct 3.0 16:08:04 10° SSE 16:13:06 68° ENE 16:18:11 10° N visible
25 Oct 5.5 17:48:41 10° SW 17:52:38 22° W 17:56:36 10° NW visible
26 Oct 6.2 04:11:34 10° NE 04:14:27 15° E 04:17:20 10° ESE visible
26 Oct 4.3 17:10:43 10° SSW 17:15:30 41° W 17:20:21 10° NNW visible
27 Oct 3.2 16:33:31 10° SSE 16:38:36 79° WSW 16:43:43 10° NNW visible
27 Oct 6.0 18:15:48 10° WSW 18:18:29 14° W 18:21:12 10° NW visible
28 Oct 5.8 04:36:15 10° NE 04:40:19 23° E 04:44:21 10° SE visible
28 Oct 3.1 15:56:54 10° SE 16:01:52 57° ENE 16:06:52 10° N visible
28 Oct 5.2 17:36:57 10° SSW 17:41:14 27° W 17:45:33 10° NW visible
29 Oct 6.3 04:00:58 10° ENE 04:03:01 12° E 04:05:03 10° ESE visible
29 Oct 3.9 16:59:15 10° S 17:04:11 50° W 17:09:10 10° NNW visible
30 Oct 3.0 16:22:14 10° SSE 16:27:19 87° ENE 16:32:27 10° NNW visible
30 Oct 5.8 18:03:44 10° SW 18:07:04 17° W 18:10:24 10° NW visible
31 Oct 6.0 04:25:15 10° NE 04:28:54 20° E 04:32:33 10° SE visible
31 Oct 3.2 15:45:48 10° SE 15:50:38 47° ENE 15:55:32 10° N visible
31 Oct 4.8 17:25:20 10° SSW 17:29:52 32° W 17:34:26 10° NNW visible
